TimeEDT,TemperatureF,Dew PointF,Humidity,Sea Level PressureIn,VisibilityMPH,Wind Direction,Wind SpeedMPH,Gust SpeedMPH,PrecipitationIn,Events,Conditions,WindDirDegrees,DateUTC
12:54 AM,57.9,57.9,100,30.04,5.0,Calm,Calm,-,N/A,,Scattered Clouds,0,2013-10-01 04:54:00
1:54 AM,55.9,55.9,100,30.04,1.8,Calm,Calm,-,N/A,,Scattered Clouds,0,2013-10-01 05:54:00
2:22 AM,55.4,55.4,100,30.06,0.8,Calm,Calm,-,N/A,,Mist,0,2013-10-01 06:22:00
2:34 AM,55.4,55.4,100,30.05,0.2,Calm,Calm,-,N/A,Fog,Fog,0,2013-10-01 06:34:00
2:41 AM,55.4,55.4,100,30.06,0.8,SSW,3.5,-,N/A,,Mist,200,2013-10-01 06:41:00
2:54 AM,55.0,55.0,100,30.04,0.2,Calm,Calm,-,N/A,Fog,Fog,0,2013-10-01 06:54:00
3:54 AM,55.0,55.0,100,30.05,0.2,Calm,Calm,-,N/A,Fog,Fog,0,2013-10-01 07:54:00
4:54 AM,54.0,54.0,100,30.05,0.2,Calm,Calm,-,0.01,Fog,Fog,0,2013-10-01 08:54:00
5:54 AM,55.0,55.0,100,30.06,0.2,Calm,Calm,-,N/A,Fog,Fog,0,2013-10-01 09:54:00
6:27 AM,55.4,55.4,100,30.08,0.5,Calm,Calm,-,N/A,Fog,Fog,0,2013-10-01 10:27:00
6:54 AM,55.0,55.0,100,30.08,0.8,Calm,Calm,-,N/A,,Mist,0,2013-10-01 10:54:00
7:14 AM,55.4,55.4,100,30.09,1.0,Calm,Calm,-,N/A,,Mist,0,2013-10-01 11:14:00
7:30 AM,55.4,55.4,100,30.09,0.5,Calm,Calm,-,N/A,Fog,Fog,0,2013-10-01 11:30:00
7:54 AM,55.0,55.0,100,30.09,0.5,Calm,Calm,-,N/A,Fog,Fog,0,2013-10-01 11:54:00
8:54 AM,55.9,55.9,100,30.09,0.5,SW,4.6,-,N/A,Fog,Fog,220,2013-10-01 12:54:00
9:19 AM,57.2,57.2,100,30.10,2.0,SSW,5.8,-,N/A,,Overcast,210,2013-10-01 13:19:00
9:31 AM,57.2,57.2,100,30.10,3.0,SSW,5.8,-,N/A,,Overcast,210,2013-10-01 13:31:00
9:54 AM,57.9,57.9,100,30.10,5.0,SSW,5.8,-,N/A,,Overcast,210,2013-10-01 13:54:00
10:06 AM,59.0,59.0,100,30.10,7.0,SW,3.5,-,N/A,,Mostly Cloudy,220,2013-10-01 14:06:00
10:54 AM,64.9,59.0,81,30.09,10.0,SSW,5.8,-,N/A,,Overcast,210,2013-10-01 14:54:00
11:54 AM,66.9,57.0,70,30.08,10.0,WSW,10.4,-,N/A,,Mostly Cloudy,250,2013-10-01 15:54:00
12:14 PM,66.2,57.2,73,30.08,10.0,West,5.8,-,N/A,,Overcast,260,2013-10-01 16:14:00
12:52 PM,69.8,57.2,64,30.08,10.0,West,6.9,17.3,N/A,,Mostly Cloudy,260,2013-10-01 16:52:00
12:54 PM,70.0,57.0,63,30.06,10.0,West,6.9,-,N/A,,Mostly Cloudy,280,2013-10-01 16:54:00
1:54 PM,70.0,55.9,61,30.04,10.0,West,6.9,-,N/A,,Scattered Clouds,270,2013-10-01 17:54:00
2:54 PM,75.0,55.9,51,30.02,10.0,WNW,10.4,-,N/A,,Scattered Clouds,300,2013-10-01 18:54:00
3:54 PM,75.0,53.1,46,30.00,10.0,West,10.4,18.4,N/A,,Scattered Clouds,270,2013-10-01 19:54:00
4:54 PM,75.0,54.0,48,30.00,10.0,West,9.2,16.1,N/A,,Scattered Clouds,270,2013-10-01 20:54:00
5:54 PM,73.0,53.1,49,30.01,10.0,WSW,8.1,16.1,N/A,,Clear,250,2013-10-01 21:54:00
6:54 PM,69.1,53.1,57,30.02,10.0,West,3.5,-,N/A,,Clear,260,2013-10-01 22:54:00
7:54 PM,62.1,55.0,78,30.03,10.0,WNW,3.5,-,N/A,,Clear,290,2013-10-01 23:54:00
8:54 PM,57.9,55.0,90,30.04,10.0,Calm,Calm,-,N/A,,Clear,0,2013-10-02 00:54:00
9:54 PM,57.0,55.0,93,30.05,10.0,Calm,Calm,-,N/A,,Clear,0,2013-10-02 01:54:00
10:54 PM,57.9,55.0,90,30.04,10.0,Calm,Calm,-,N/A,,Clear,0,2013-10-02 02:54:00
11:54 PM,55.0,55.0,100,30.04,7.0,SW,3.5,-,N/A,,Clear,220,2013-10-02 03:54:00